Torna al catalogo

TITAN 34D TRANSTAGE R/B

AttivoGEO
NORAD 20205·ROCKET BODY·🇺🇸 United States

Lanciato Sep 4, 1989 da Cape Canaveral Space Force Station

Loading…

TLE

AggiornatoSource: Space-Track

Epoca: Sep 14, 2026, 06:55 UTC

1 20205U 89069D   26257.28884269 -.00000092  00000-0  00000-0 0  9992
2 20205  10.9376 327.0001 0070043 348.8592  10.9796  1.01246601 27904

Traccia TITAN 34D TRANSTAGE R/B in tempo reale con AllMySat

Download on the App Store